Погода в Волта-Редонда

Бразилия     22°29′47″S   44°06′04″W
темп.,
°C
ветер,
м/с
пор.,
м/с
влажн.,
%
обл.,
%
осадки,
мм/ч
давл.,
гПа
погр.,
м
27 февраля, сб
сб2700:00+20вюв12100100 11.9 1016163
03:00+19всв1299100 13.4 1014127
06:00+19св1299100 1.1 1015103
09:00+21св1296100 1.4 1016229
12:00+25всв1283100 2.8 1016676
15:00+24вюв1390100 5.6 1014532
18:00+21вюв2395100 2.3 101477
21:00+19вюв0196100 2.4 101523
28 февраля, вс
вс2800:00+19з0197100 0.0 101523
03:00+18сз1198100 0.0 101424
06:00+18зсз119880 0.0 101524
09:00+22с258990 0.0 1016545
12:00+26ссв247198 0.0 10151032
15:00+27св356884 0.1 10121093
18:00+22всв2489100 1.8 101290
21:00+19св119593 1.8 101536
1 марта, пн
пн100:00+18ссз119776 0.0 101534
03:00+17ссз119754 0.0 101328
06:00+17с11980 0.0 101434
09:00+23с248316 0.0 1015637
12:00+27св246899 0.0 10141101
15:00+27св248086 2.0 1011995
18:00+23св2491100 2.8 101193
21:00+20св129690 3.0 101455
2 марта, вт
вт200:00+19с129740 0.0 101457
03:00+18с119836 0.0 101346
06:00+18с119897 0.0 101538
09:00+23с238684 0.0 1016457
12:00+28ссв256449 0.0 10151204
15:00+27св247971 0.7 1013713
18:00+23св2592100 1.4 1013126
21:00+20ссв1295100 1.6 101547
3 марта, ср
ср300:00+18с119562 0.0 101624
03:00+18ссз119679 0.0 101527
06:00+17ссз119698 0.0 101627
09:00+23ссз248393 0.0 1017387
12:00+30ссз155669 0.0 10161693
15:00+26в368560 1.6 1014491
18:00+22юв259565 3.1 1014175
21:00+20ссв119682 4.2 101623